sat.trackr.live / text

‹ back to catalog

HULIANWANG DIGUI-24

NORAD 63691 · 2025-086E

PAYLOAD ACTIVE UNKNOWN

§ Identity

Operator
Country
PRC
Launch date
2025-04-28
Launch site
WSC
Launch vehicle
Mass (kg)
RCS (m²)

External: N2YO · Heavens-Above · Gunter

§ Orbital elements

Epoch: 2026-05-25T04:06:47.847168Z

Period
108.73 min
Inclination
86.5075°
Eccentricity
0.0001452
Mean motion
13.24408584 rev/d
Perigee alt
1,166.8 km
Apogee alt
1,169.0 km
Semi-major
7,546.1 km
B*
4.9410e-5
RAAN
321.0176°
Arg perigee
79.1313°
Mean anomaly
280.9985°
Rev number
5,181

§ Raw data

HULIANWANG DIGUI-241 63691U 25086E   26145.17138712  .00000036  00000+0  49410-4 0  99942 63691  86.5075 321.0176 0001452  79.1313 280.9985 13.24408584 51819

JSON: /api/v1/satellites/63691 · /tle

For live sub-satellite position, see the globe view (requires WebGL).

§ Visibility from observer

Set your observer location to see the next 7 days of passes ≥ 10°. The values pass through the URL so the page stays shareable.

No JS? Fill the form by hand. The geolocation button needs JavaScript.